Regional Weather Roundup
Issued by NWS

Home | Current Version | Previous Version | Text Only | Print | Product List | Glossary On
Versions: 1 2 3 4 5 6 7 8 9 10 11 12 13 14 15 16 17 18 19 20 21 22 23 24 25 26 27 28 29 30 31 32 33 34 35 36 37 38 39 40 41 42 43 44 45 46 47 48 49 50
000
ASUS43 KTOP 261859
RWRKS

WEATHER ROUNDUP FOR KANSAS
NATIONAL WEATHER SERVICE GOODLAND KS
200 PM CDT FRI MAY 26 2017

NOTE:  "FAIR" INDICATES FEW OR NO CLOUDS BELOW 12,000 FEET WITH NO
SIGNIFICANT WEATHER AND/OR OBSTRUCTIONS TO VISIBILITY.

KSZ001>006-013>018-027>032-041>047-262000-
NORTHWEST KANSAS

CITY           SKY/WX    TMP DP  RH WIND       PRES   REMARKS
GOODLAND       SUNNY     68  48  48 VRB7      29.93F
HAYS           SUNNY     75  56  51 NE13      29.87S
HILL CITY      SUNNY     75  51  43 NE9       29.89F
RUSSELL        SUNNY     76  58  53 N10       29.84F
$$

KSZ061>065-074>080-084>089-262000-
SOUTHWEST KANSAS

CITY           SKY/WX    TMP DP  RH WIND       PRES   REMARKS
DODGE CITY     SUNNY     78  57  48 NE10      29.87F
ELKHART          N/A     77  48  35 NE6         N/A
GARDEN CITY    SUNNY     77  52  41 NE12G21   29.89S
GREAT BEND     SUNNY     76  61  59 N15       29.85S
LIBERAL        SUNNY     80  51  36 NE7       29.89S
$$

KSZ066>073-081>083-090>101-262000-
SOUTHEAST KANSAS

CITY           SKY/WX    TMP DP  RH WIND       PRES   REMARKS
CHANUTE        MOSUNNY   85  66  53 VRB5      29.76R
COFFEYVILLE    MOSUNNY   84  70  62 CALM      29.74S
HUTCHINSON     SUNNY     82  61  48 N14       29.81R
MEDICINE LODGE   N/A     83  57  41 NE10      29.80S
NEWTON         SUNNY     81  63  54 NE9       29.81R
PARSONS        CLOUDY    83  64  52 NE3       29.75S
WICHITA INTL   SUNNY     84  60  44 N15       29.78R
WICHITA JABRA  SUNNY     84  61  45 N12       29.78S
WINFIELD       SUNNY     85  64  49 N6        29.78R
$$

KSZ007>012-019>026-033>040-048>060-102>105-262000-
NORTHEAST KANSAS

CITY           SKY/WX    TMP DP  RH WIND       PRES   REMARKS
CONCORDIA      SUNNY     77  58  51 N7        29.82F
EMPORIA        SUNNY     82  64  54 NE8       29.77R
LAWRENCE       MOSUNNY   83  65  54 VRB3      29.75R
MANHATTAN      MOSUNNY   81  65  58 CALM      29.78S
OLATHE IND     MOSUNNY   79  64  60 N3        29.76S
OLATHE EXE     MOSUNNY   79  65  62 VRB5      29.76S
SALINA         SUNNY     82  63  52 N10       29.81S
TOPEKA BILLARD PTSUNNY   82  66  58 VRB6      29.76R
TOPEKA FORBES  PTSUNNY   83  66  56 NE6       29.76R
$$




USA.gov is the U.S. government's official web portal to all federal, state and local government web resources and services.